Weather History for KPIH - February, 2015

Change the Weather History Date:

Sunday, February 8, 2015

  Actual Average Record
Temperature  
Mean Temperature 48 °F 26 °F  
Max Temperature 61 °F 35 °F 61 °F (2015)
Min Temperature 34 °F 18 °F -15 °F (1989)
Degree Days  
Heating Degree Days 17 39  
Month to date heating degree days 163 314  
Since 1 July heating degree days 3770 4561  
Cooling Degree Days 0 0  
Month to date cooling degree days 0 0  
Year to date cooling degree days 0 0  
Moisture  
Dew Point 33 °F    
Average Humidity 56    
Maximum Humidity 82    
Minimum Humidity 29    
Precipitation  
Precipitation 0.00 in 0.03 in 0.53 in (1960)
Month to date precipitation 0.37 0.25  
Year to date precipitation 0.80 1.24  
Snow  
Snow 0.00 in - - ()
Month to date snowfall 0.0  
Since 1 July snowfall 12.7  
Snow Depth 0.00 in    
Sea Level Pressure  
Sea Level Pressure 30.12 in    
Wind  
Wind Speed 9 mph (SSW)    
Max Wind Speed 20 mph    
Max Gust Speed 24 mph    
Visibility 10 miles    
Events      
T = Trace of Precipitation, MM = Missing Value Source: NWS Daily Summary

Daily Weather History Graph

Daily Weather History Graph

Search for Another Location

Airport or City:

Trip Planner

Search our weather history database for the weather conditions in past years. The results will help you decide how hot, cold, wet, or windy it might be!

Date:

Astronomy

Feb. 08, 2015 Rise Set
Actual Time 7:37 AM MST 5:52 PM MST
Civil Twilight 7:07 AM MST 6:21 PM MST
Nautical Twilight 6:34 AM MST 6:55 PM MST
Astronomical Twilight 6:01 AM MST 7:28 PM MST
Moon 10:42 PM MST (2/8) 9:39 AM MST (2/8)
Length of Visible Light 11h 14m
Length of Day
10h 15m
Waning Gibbous, 81% of the Moon is Illuminated
Feb 8
Waning Gibbous
Feb 11
Last Quarter
Feb 18
New
Feb 25
First Quarter
Mar 5
Full

Hourly Weather History & Observations

Time (MST) Temp. Windchill Dew Point Humidity Pressure Visibility Wind Dir Wind Speed Gust Speed Precip Events Conditions
12:53 AM 46.0 °F 40.6 °F 35.1 °F 66% 30.06 in 10.0 mi SSW 11.5 mph - N/A   Clear
1:53 AM 42.8 °F 37.0 °F 35.6 °F 76% 30.13 in 10.0 mi SSW 10.4 mph - N/A   Clear
2:53 AM 41.0 °F 33.9 °F 35.1 °F 79% 30.11 in 10.0 mi SW 12.7 mph - N/A   Clear
3:53 AM 41.0 °F 36.4 °F 35.1 °F 79% 30.12 in 10.0 mi SW 6.9 mph - N/A   Clear
4:53 AM 45.0 °F 37.6 °F 35.1 °F 68% 30.13 in 10.0 mi SSW 17.3 mph - N/A   Clear
5:53 AM 43.0 °F 37.7 °F 33.1 °F 68% 30.16 in 10.0 mi SSW 9.2 mph - N/A   Clear
6:53 AM 35.1 °F 28.6 °F 30.9 °F 85% 30.21 in 10.0 mi West 8.1 mph - N/A   Clear
7:53 AM 37.4 °F 33.8 °F 30.2 °F 75% 30.20 in 10.0 mi South 4.6 mph - N/A   Clear
8:53 AM 44.1 °F 38.6 °F 34.0 °F 68% 30.22 in 10.0 mi SW 10.4 mph - N/A   Clear
9:53 AM 51.1 °F - 36.0 °F 56% 30.23 in 10.0 mi SSW 9.2 mph - N/A   Clear
10:53 AM 54.0 °F - 32.0 °F 43% 30.21 in 10.0 mi South 10.4 mph 16.1 mph N/A   Clear
11:53 AM 55.9 °F - 32.0 °F 40% 30.21 in 10.0 mi WSW 6.9 mph 18.4 mph N/A   Clear
12:53 PM 57.0 °F - 30.9 °F 37% 30.16 in 10.0 mi SSW 9.2 mph - N/A   Clear
1:53 PM 60.1 °F - 28.0 °F 30% 30.11 in 10.0 mi ESE 5.8 mph - N/A   Partly Cloudy
2:53 PM 61.0 °F - 30.0 °F 31% 30.10 in 10.0 mi South 12.7 mph - N/A   Clear
3:53 PM 59.0 °F - 30.9 °F 35% 30.10 in 10.0 mi South 13.8 mph - N/A   Scattered Clouds
4:53 PM 55.9 °F - 34.0 °F 44% 30.09 in 10.0 mi SSE 12.7 mph - N/A   Partly Cloudy
5:53 PM 54.0 °F - 34.0 °F 47% 30.10 in 10.0 mi South 10.4 mph - N/A   Clear
6:53 PM 51.1 °F - 35.1 °F 54% 30.12 in 10.0 mi South 10.4 mph - N/A   Clear
7:53 PM 52.0 °F - 35.1 °F 53% 30.08 in 10.0 mi Calm Calm - N/A   Clear
8:53 PM 48.9 °F - 37.0 °F 64% 30.07 in 10.0 mi NNW 5.8 mph - N/A   Overcast
9:53 PM 53.1 °F - 32.0 °F 45% 30.02 in 10.0 mi NNW 8.1 mph - N/A   Mostly Cloudy
10:53 PM 53.1 °F - 30.0 °F 41% 29.99 in 10.0 mi Variable 6.9 mph - N/A   Partly Cloudy
11:53 PM 48.9 °F - 33.1 °F 54% 29.99 in 10.0 mi Variable 4.6 mph - N/A   Clear